This demonstration page uses our WeatherBlox Daily Observations layout. Learn more.

Left ArrowRight Arrow

38.80484, -77.04692

Hourly Observations for July 3, 2018

Temp ( °F °C ) Dew Point ( °F °C ) Humidity (%) Winds ( mph kmh ) Pressure ( in mb ) Visibility ( mi km ) Precip ( " mm )
12:52 am 00:52 Mostly Clear 84 28.9 77 25 80 80 SSE 5 7 30.10 1019 10 16 0.00 0.00
1:52 am 01:52 Mostly Clear 83 28.3 77 25 82 82 S 6 9 30.09 1019 10 16 0.00 0.00
2:52 am 02:52 Mostly Clear 83 28.3 76 24.4 79 79 SSW 5 7 30.10 1019 10 16 0.00 0.00
3:52 am 03:52 Mostly Clear 82 27.8 76 24.4 82 82 S 3 6 30.09 1019 10 16 0.00 0.00
4:52 am 04:52 Partly Cloudy 82 27.8 73 22.8 74 74 Calm 30.10 1019 10 16 0.00 0.00
5:52 am 05:52 Mostly Cloudy 82 27.8 73 22.8 74 74 Calm 30.11 1020 10 16 0.00 0.00
6:52 am 06:52 Sunny 82 27.8 77 25 85 85 Calm 30.13 1020 N/A 0.00 0.00
7:52 am 07:52 Sunny 85 29.4 74 23.3 70 70 N 6 9 30.14 1021 10 16 0.00 0.00
8:52 am 08:52 Sunny 87 30.6 76 24.4 70 70 NW 3 6 30.15 1021 10 16 0.00 0.00
9:52 am 09:52 Sunny 90 32.2 76 24.4 63 63 N 6 9 30.16 1021 10 16 0.00 0.00
10:52 am 10:52 Sunny 92 33.3 75 23.9 58 58 Calm 30.16 1021 10 16 0.00 0.00
11:52 am 11:52 Mostly Cloudy 96 35.6 75 23.9 51 51 VRB 3 6 30.16 1021 10 16 0.00 0.00
12:52 pm 12:52 Mostly Cloudy 96 35.6 75 23.9 51 51 N 3 6 30.16 1021 10 16 0.00 0.00
1:52 pm 13:52 Mostly Cloudy 96 35.6 76 24.4 52 52 VRB 3 6 30.15 1021 10 16 0.00 0.00
2:52 pm 14:52 Mostly Cloudy 94 34.4 77 25 58 58 ENE 12 19 30.14 1021 10 16 0.00 0.00
3:52 pm 15:52 Mostly Cloudy 94 34.4 76 24.4 56 56 E 5 7 30.14 1021 10 16 0.00 0.03
4:47 pm 16:47 Mostly Cloudy with Thunderstorms 95 35 75 24 53 53 SSW 5 7 30.15 1021 10 16 0.00 0.00
4:52 pm 16:52 Mostly Cloudy with Thunderstorms 95 35 76 24.4 54 54 S 3 6 30.13 1020 10 16 0.00 0.00
5:15 pm 17:15 Mostly Cloudy 96 35.6 74 23.3 49 49 SSW 5 7 30.12 1020 10 16 0.00 0.00
5:52 pm 17:52 Mostly Cloudy 94 34.4 75 23.9 54 54 VRB 5 7 30.13 1020 10 16 0.00 0.00
6:52 pm 18:52 Mostly Cloudy 91 32.8 73 22.8 56 56 N 7 11 30.13 1020 10 16 0.00 0.03
7:52 pm 19:52 Mostly Cloudy 87 30.6 74 23.3 65 65 N 7 11 30.14 1021 10 16 0.00 0.00
8:52 pm 20:52 Mostly Cloudy 87 30.6 71 21.7 59 59 NNE 5 7 30.17 1022 10 16 0.00 0.00
9:52 pm 21:52 Mostly Cloudy 87 30.6 70 21.1 57 57 NE 3 6 30.19 1023 10 16 0.00 0.00
10:52 pm 22:52 Mostly Cloudy 87 30.6 74 23.3 65 65 ENE 15 24 30.20 1023 10 16 0.00 0.00
11:09 pm 23:09 Mostly Cloudy 86 30 75 23.9 70 70 SE 8 13 30.18 1022 10 16 0.00 0.00
11:52 pm 23:52 Mostly Cloudy 85 29.4 74 23.3 70 70 SE 6 9 30.20 1023 10 16 0.00 0.00

Powered by AerisWeather